| time (UTC) | temp F | wind direction | speed MPH | gust MPH | rain 1hr in | rain 24hr in | rain mn in | humidity % | barometer mb |
| 20260507005433 | 59 | 108 | 11.0 | 18.0 | 0.00 | 0.00 | 0.00 | 46 | 1016.0 |
| 20260507004933 | 60 | 70 | 12.0 | 21.0 | 0.00 | 0.00 | 0.00 | 45 | 1016.1 |
| 20260507004434 | 60 | 46 | 12.0 | 21.0 | 0.00 | 0.00 | 0.00 | 45 | 1016.1 |
| 20260507003933 | 60 | 101 | 11.0 | 18.0 | 0.00 | 0.00 | 0.00 | 44 | 1015.9 |
| 20260507003439 | 60 | 57 | 11.0 | 21.0 | 0.00 | 0.00 | 0.00 | 44 | 1015.8 |
| 20260507003434 | 60 | 96 | 11.0 | 21.0 | 0.00 | 0.00 | 0.00 | 44 | 1015.8 |
| 20260507002432 | 60 | 80 | 12.0 | 20.0 | 0.00 | 0.00 | 0.00 | 44 | 1015.8 |
| 20260507001931 | 61 | 41 | 13.0 | 21.0 | 0.00 | 0.00 | 0.00 | 44 | 1015.7 |
| 20260507001429 | 61 | 57 | 14.0 | 23.0 | 0.00 | 0.00 | 0.00 | 43 | 1015.7 |
| 20260507000930 | 62 | 22 | 15.0 | 23.0 | 0.00 | 0.00 | 0.00 | 42 | 1015.5 |
| 20260507000429 | 62 | 102 | 15.0 | 23.0 | 0.00 | 0.00 | 0.00 | 42 | 1015.5 |
| 20260506235928 | 63 | 97 | 15.0 | 23.0 | 0.00 | 0.00 | 0.00 | 41 | 1015.0 |
| 20260506235427 | 63 | 75 | 14.0 | 22.0 | 0.00 | 0.00 | 0.00 | 41 | 1015.1 |
| 20260506234925 | 63 | 128 | 14.0 | 22.0 | 0.00 | 0.00 | 0.00 | 41 | 1015.0 |
| 20260506234426 | 62 | 40 | 14.0 | 22.0 | 0.00 | 0.00 | 0.00 | 41 | 1014.8 |
| 20260506233925 | 63 | 91 | 16.0 | 27.0 | 0.00 | 0.00 | 0.00 | 41 | 1014.9 |
| 20260506233425 | 64 | 91 | 19.0 | 27.0 | 0.00 | 0.00 | 0.00 | 39 | 1014.7 |
| 20260506232924 | 65 | 72 | 18.0 | 26.0 | 0.00 | 0.00 | 0.00 | 38 | 1015.0 |
| 20260506232423 | 64 | 84 | 17.0 | 24.0 | 0.00 | 0.00 | 0.00 | 39 | 1015.0 |
| 20260506231924 | 64 | 97 | 17.0 | 26.0 | 0.00 | 0.00 | 0.00 | 40 | 1015.0 |
| 20260506231424 | 64 | 94 | 15.0 | 26.0 | 0.00 | 0.00 | 0.00 | 39 | 1014.9 |
| 20260506230927 | 64 | 74 | 15.0 | 26.0 | 0.00 | 0.00 | 0.00 | 39 | 1015.0 |
| 20260506230923 | 64 | 93 | 16.0 | 26.0 | 0.00 | 0.00 | 0.00 | 40 | 1014.8 |
| 20260506230152 | 64 | 76 | 13.0 | 25.0 | 0.00 | 0.00 | 0.00 | 38 | 1014.9 |
| 20260506225421 | 64 | 79 | 14.0 | 24.0 | 0.00 | 0.00 | 0.00 | 38 | 1014.8 |
| 20260506224919 | 65 | 68 | 14.0 | 24.0 | 0.00 | 0.00 | 0.00 | 38 | 1014.6 |
| 20260506224420 | 65 | 44 | 14.0 | 23.0 | 0.00 | 0.00 | 0.00 | 38 | 1014.6 |
| 20260506223918 | 65 | 131 | 14.0 | 23.0 | 0.00 | 0.00 | 0.00 | 38 | 1014.7 |
| 20260506223415 | 65 | 76 | 13.0 | 20.0 | 0.00 | 0.00 | 0.00 | 38 | 1014.6 |
| 20260506222915 | 64 | 86 | 11.0 | 18.0 | 0.00 | 0.00 | 0.00 | 38 | 1014.6 |
| 20260506222415 | 64 | 52 | 13.0 | 21.0 | 0.00 | 0.00 | 0.00 | 38 | 1014.7 |
| 20260506221915 | 64 | 43 | 14.0 | 22.0 | 0.00 | 0.00 | 0.00 | 38 | 1014.7 |
| 20260506221646 | 65 | 95 | 12.0 | 22.0 | 0.00 | 0.00 | 0.00 | 37 | 1014.8 |
| 20260506220912 | 65 | 91 | 11.0 | 20.0 | 0.00 | 0.00 | 0.00 | 36 | 1014.7 |
| 20260506220409 | 66 | 359 | 12.0 | 20.0 | 0.00 | 0.00 | 0.00 | 36 | 1014.7 |
| 20260506215909 | 67 | 82 | 14.0 | 22.0 | 0.00 | 0.00 | 0.00 | 35 | 1014.8 |
| 20260506215409 | 67 | 68 | 12.0 | 22.0 | 0.00 | 0.00 | 0.00 | 35 | 1014.6 |
| 20260506214908 | 68 | 103 | 8.0 | 21.0 | 0.00 | 0.00 | 0.00 | 33 | 1014.7 |
| 20260506214638 | 69 | 32 | 5.0 | 12.0 | 0.00 | 0.00 | 0.00 | 33 | 1014.5 |
| 20260506213908 | 68 | 100 | 3.0 | 9.0 | 0.00 | 0.00 | 0.00 | 33 | 1014.7 |
| 20260506213406 | 68 | 102 | 5.0 | 13.0 | 0.00 | 0.00 | 0.00 | 34 | 1014.7 |
| 20260506212905 | 68 | 158 | 7.0 | 14.0 | 0.00 | 0.00 | 0.00 | 34 | 1014.9 |
| 20260506212403 | 68 | 123 | 6.0 | 14.0 | 0.00 | 0.00 | 0.00 | 34 | 1015.0 |
| 20260506211903 | 67 | 50 | 5.0 | 12.0 | 0.00 | 0.00 | 0.00 | 35 | 1015.0 |
| 20260506211403 | 67 | 36 | 5.0 | 12.0 | 0.00 | 0.00 | 0.00 | 36 | 1015.0 |
| 20260506210901 | 66 | 58 | 6.0 | 13.0 | 0.00 | 0.00 | 0.00 | 36 | 1015.1 |
| 20260506210401 | 65 | 98 | 6.0 | 13.0 | 0.00 | 0.00 | 0.00 | 37 | 1015.1 |
| 20260506205903 | 65 | 24 | 7.0 | 13.0 | 0.00 | 0.00 | 0.00 | 36 | 1015.1 |
| 20260506205359 | 65 | 37 | 7.0 | 15.0 | 0.00 | 0.00 | 0.00 | 36 | 1015.1 |
| 20260506204859 | 66 | 59 | 8.0 | 15.0 | 0.00 | 0.00 | 0.00 | 36 | 1015.2 |
| 20260506204629 | 65 | 32 | 10.0 | 16.0 | 0.00 | 0.00 | 0.00 | 36 | 1015.2 |
| 20260506203858 | 65 | 113 | 8.0 | 16.0 | 0.00 | 0.00 | 0.00 | 36 | 1015.3 |
| 20260506203629 | 65 | 146 | 7.0 | 16.0 | 0.00 | 0.00 | 0.00 | 38 | 1015.4 |
| 20260506202858 | 65 | 55 | 8.0 | 15.0 | 0.00 | 0.00 | 0.00 | 37 | 1015.4 |
| 20260506202626 | 64 | 24 | 7.0 | 14.0 | 0.00 | 0.00 | 0.00 | 38 | 1015.5 |
| 20260506201853 | 64 | 60 | 5.0 | 11.0 | 0.00 | 0.00 | 0.00 | 37 | 1015.7 |
| 20260506201353 | 64 | 134 | 6.0 | 13.0 | 0.00 | 0.00 | 0.00 | 38 | 1015.6 |
| 20260506200856 | 64 | 69 | 7.0 | 13.0 | 0.00 | 0.00 | 0.00 | 37 | 1015.6 |
| 20260506200623 | 65 | 102 | 8.0 | 14.0 | 0.00 | 0.00 | 0.00 | 36 | 1015.7 |
| 20260506195853 | 65 | 71 | 8.0 | 15.0 | 0.00 | 0.00 | 0.00 | 37 | 1015.7 |
| 20260506195351 | 65 | 103 | 7.0 | 17.0 | 0.00 | 0.00 | 0.00 | 37 | 1015.7 |
| 20260506194851 | 65 | 117 | 6.0 | 17.0 | 0.00 | 0.00 | 0.00 | 37 | 1015.7 |
| 20260506194730 | 65 | 122 | 8.0 | 16.0 | 0.00 | 0.00 | 0.00 | 37 | 1015.7 |
| 20260506194621 | 65 | 56 | 7.0 | 16.0 | 0.00 | 0.00 | 0.00 | 36 | 1015.6 |
| 20260506193351 | 65 | 70 | 6.0 | 14.0 | 0.00 | 0.00 | 0.00 | 37 | 1015.6 |
| 20260506192855 | 65 | 226 | 3.0 | 8.0 | 0.00 | 0.00 | 0.00 | 37 | 1015.9 |
| 20260506192851 | 65 | 38 | 4.0 | 11.0 | 0.00 | 0.00 | 0.00 | 37 | 1015.8 |
| 20260506191851 | 64 | 236 | 4.0 | 10.0 | 0.00 | 0.00 | 0.00 | 37 | 1016.0 |
| 20260506191349 | 64 | 143 | 4.0 | 12.0 | 0.00 | 0.00 | 0.00 | 37 | 1016.1 |
| 20260506190844 | 64 | 207 | 3.0 | 12.0 | 0.00 | 0.00 | 0.00 | 37 | 1016.2 |
| 20260506190345 | 64 | 238 | 3.0 | 9.0 | 0.00 | 0.00 | 0.00 | 38 | 1016.3 |
| 20260506185843 | 64 | 129 | 4.0 | 9.0 | 0.00 | 0.00 | 0.00 | 40 | 1016.4 |
| 20260506185343 | 63 | 281 | 4.0 | 10.0 | 0.00 | 0.00 | 0.00 | 39 | 1016.5 |
| 20260506184843 | 63 | 220 | 2.0 | 10.0 | 0.00 | 0.00 | 0.00 | 39 | 1016.6 |
| 20260506184343 | 63 | 98 | 2.0 | 6.0 | 0.00 | 0.00 | 0.00 | 40 | 1016.7 |
| 20260506183843 | 63 | 55 | 3.0 | 9.0 | 0.00 | 0.00 | 0.00 | 41 | 1016.8 |
| 20260506183344 | 62 | 109 | 5.0 | 13.0 | 0.00 | 0.00 | 0.00 | 41 | 1017.0 |
| 20260506182841 | 62 | 114 | 4.0 | 13.0 | 0.00 | 0.00 | 0.00 | 41 | 1016.8 |
| 20260506182339 | 62 | 103 | 3.0 | 10.0 | 0.00 | 0.00 | 0.00 | 42 | 1017.1 |
| 20260506181839 | 62 | 150 | 3.0 | 10.0 | 0.00 | 0.00 | 0.00 | 43 | 1017.2 |
| 20260506181336 | 61 | 56 | 3.0 | 10.0 | 0.00 | 0.00 | 0.00 | 44 | 1017.2 |
| 20260506180837 | 60 | 139 | 5.0 | 11.0 | 0.00 | 0.00 | 0.00 | 45 | 1017.1 |
| 20260506180337 | 60 | 96 | 4.0 | 11.0 | 0.00 | 0.00 | 0.00 | 46 | 1017.2 |
| 20260506175834 | 59 | 98 | 4.0 | 8.0 | 0.00 | 0.00 | 0.00 | 46 | 1017.4 |
| 20260506175335 | 59 | 49 | 6.0 | 13.0 | 0.00 | 0.00 | 0.00 | 47 | 1017.5 |
| 20260506174835 | 59 | 53 | 5.0 | 13.0 | 0.00 | 0.00 | 0.00 | 47 | 1017.5 |
| 20260506174604 | 59 | 110 | 3.0 | 11.0 | 0.00 | 0.00 | 0.00 | 48 | 1017.6 |
| 20260506173832 | 59 | 41 | 2.0 | 10.0 | 0.00 | 0.00 | 0.00 | 48 | 1017.7 |
| 20260506173333 | 58 | 140 | 3.0 | 9.0 | 0.00 | 0.00 | 0.00 | 49 | 1017.7 |
| 20260506172833 | 58 | 280 | 3.0 | 9.0 | 0.00 | 0.00 | 0.00 | 49 | 1017.9 |
| 20260506172325 | 57 | 151 | 5.0 | 12.0 | 0.00 | 0.00 | 0.00 | 50 | 1017.8 |
| 20260506172054 | 57 | 60 | 5.0 | 12.0 | 0.00 | 0.00 | 0.00 | 49 | 1017.8 |
| 20260506171315 | 57 | 106 | 3.0 | 12.0 | 0.00 | 0.00 | 0.00 | 50 | 1017.9 |
| 20260506170811 | 57 | 32 | 3.0 | 10.0 | 0.00 | 0.00 | 0.00 | 51 | 1017.8 |
| 20260506170308 | 57 | 65 | 4.0 | 10.0 | 0.00 | 0.00 | 0.00 | 50 | 1017.9 |
| 20260506165809 | 57 | 85 | 2.0 | 10.0 | 0.00 | 0.00 | 0.00 | 51 | 1017.9 |
| 20260506165309 | 56 | 122 | 1.0 | 6.0 | 0.00 | 0.00 | 0.00 | 53 | 1017.9 |
| 20260506164808 | 56 | 79 | 3.0 | 9.0 | 0.00 | 0.00 | 0.00 | 53 | 1017.9 |
| 20260506164307 | 55 | 98 | 4.0 | 10.0 | 0.00 | 0.00 | 0.00 | 54 | 1017.9 |
| 20260506163807 | 55 | 141 | 4.0 | 12.0 | 0.00 | 0.00 | 0.00 | 55 | 1017.8 |
| 20260506163305 | 55 | 142 | 3.0 | 12.0 | 0.00 | 0.00 | 0.00 | 56 | 1017.8 |
| 20260506162804 | 54 | 44 | 2.0 | 7.0 | 0.00 | 0.00 | 0.00 | 59 | 1017.9 |
| 20260506162306 | 54 | 159 | 3.0 | 7.0 | 0.00 | 0.00 | 0.00 | 59 | 1017.9 |
| 20260506161802 | 53 | 178 | 2.0 | 6.0 | 0.00 | 0.00 | 0.00 | 60 | 1017.9 |
| 20260506161303 | 53 | 101 | 2.0 | 7.0 | 0.00 | 0.00 | 0.00 | 61 | 1017.9 |
| 20260506160801 | 52 | 215 | 2.0 | 8.0 | 0.00 | 0.00 | 0.00 | 62 | 1017.9 |
| 20260506160301 | 52 | 117 | 4.0 | 9.0 | 0.00 | 0.00 | 0.00 | 62 | 1017.8 |
| 20260506155801 | 52 | 113 | 3.0 | 9.0 | 0.00 | 0.00 | 0.00 | 63 | 1017.8 |
| 20260506155534 | 51 | 111 | 3.0 | 10.0 | 0.00 | 0.00 | 0.00 | 64 | 1017.7 |
| 20260506155259 | 51 | 146 | 3.0 | 10.0 | 0.00 | 0.00 | 0.00 | 64 | 1017.7 |
| 20260506154259 | 51 | 143 | 3.0 | 8.0 | 0.00 | 0.00 | 0.00 | 65 | 1017.6 |
| 20260506153756 | 51 | 116 | 4.0 | 8.0 | 0.00 | 0.00 | 0.00 | 65 | 1017.7 |
| 20260506153257 | 51 | 101 | 3.0 | 7.0 | 0.00 | 0.00 | 0.00 | 66 | 1017.6 |
| 20260506152757 | 49 | 156 | 2.0 | 7.0 | 0.00 | 0.00 | 0.00 | 69 | 1017.5 |
| 20260506152254 | 49 | 158 | 2.0 | 7.0 | 0.00 | 0.00 | 0.00 | 70 | 1017.4 |
| 20260506151755 | 48 | 129 | 3.0 | 7.0 | 0.00 | 0.00 | 0.00 | 71 | 1017.4 |
| 20260506151255 | 48 | 162 | 3.0 | 8.0 | 0.00 | 0.00 | 0.00 | 71 | 1017.4 |
| 20260506150755 | 48 | 147 | 3.0 | 8.0 | 0.00 | 0.00 | 0.00 | 72 | 1017.4 |
| 20260506150304 | 47 | 113 | 3.0 | 5.0 | 0.00 | 0.00 | 0.00 | 73 | 1017.4 |
| 20260506145752 | 47 | 7 | 2.0 | 6.0 | 0.00 | 0.00 | 0.00 | 74 | 1017.5 |
| 20260506145252 | 47 | 38 | 2.0 | 8.0 | 0.00 | 0.00 | 0.00 | 75 | 1017.4 |
| 20260506145017 | 46 | 74 | 3.0 | 8.0 | 0.00 | 0.00 | 0.00 | 75 | 1017.4 |
| 20260506144518 | 46 | 129 | 2.0 | 6.0 | 0.00 | 0.00 | 0.00 | 76 | 1017.3 |
| 20260506143743 | 45 | 111 | 3.0 | 8.0 | 0.00 | 0.00 | 0.00 | 77 | 1017.3 |
| 20260506143241 | 45 | 202 | 4.0 | 8.0 | 0.00 | 0.00 | 0.00 | 77 | 1017.2 |
| 20260506142740 | 45 | 141 | 3.0 | 9.0 | 0.00 | 0.00 | 0.00 | 78 | 1017.2 |
| 20260506142241 | 45 | 128 | 5.0 | 9.0 | 0.00 | 0.00 | 0.00 | 79 | 1017.2 |
| 20260506141737 | 44 | 94 | 6.0 | 12.0 | 0.00 | 0.00 | 0.00 | 79 | 1017.2 |
| 20260506141238 | 44 | 108 | 6.0 | 12.0 | 0.00 | 0.00 | 0.00 | 79 | 1017.1 |
| 20260506141007 | 44 | 58 | 6.0 | 11.0 | 0.00 | 0.00 | 0.00 | 79 | 1017.1 |
| 20260506140235 | 44 | 120 | 7.0 | 11.0 | 0.00 | 0.00 | 0.00 | 80 | 1017.1 |
| 20260506140007 | 44 | 135 | 6.0 | 12.0 | 0.00 | 0.00 | 0.00 | 80 | 1017.1 |
| 20260506135233 | 44 | 120 | 6.0 | 12.0 | 0.00 | 0.00 | 0.00 | 79 | 1017.0 |
| 20260506134733 | 44 | 99 | 6.0 | 12.0 | 0.00 | 0.00 | 0.00 | 79 | 1017.0 |
| 20260506134233 | 44 | 110 | 6.0 | 10.0 | 0.00 | 0.00 | 0.00 | 80 | 1016.9 |
| 20260506133733 | 45 | 105 | 6.0 | 13.0 | 0.00 | 0.00 | 0.00 | 80 | 1016.8 |
| 20260506133233 | 44 | 124 | 7.0 | 15.0 | 0.00 | 0.00 | 0.00 | 79 | 1016.7 |
| 20260506132733 | 45 | 113 | 6.0 | 12.0 | 0.00 | 0.00 | 0.00 | 79 | 1016.7 |
| 20260506132503 | 45 | 103 | 6.0 | 12.0 | 0.00 | 0.00 | 0.00 | 79 | 1016.8 |
| 20260506131733 | 45 | 107 | 8.0 | 13.0 | 0.00 | 0.00 | 0.00 | 79 | 1016.7 |
| 20260506131232 | 45 | 95 | 8.0 | 13.0 | 0.00 | 0.00 | 0.00 | 79 | 1016.8 |
| 20260506130733 | 45 | 96 | 8.0 | 13.0 | 0.00 | 0.00 | 0.00 | 79 | 1016.7 |
| 20260506130233 | 44 | 89 | 9.0 | 14.0 | 0.00 | 0.00 | 0.00 | 79 | 1016.8 |
| 20260506125959 | 44 | 112 | 8.0 | 14.0 | 0.00 | 0.00 | 0.00 | 78 | 1016.8 |
| 20260506125228 | 44 | 106 | 7.0 | 11.0 | 0.00 | 0.00 | 0.00 | 79 | 1016.8 |
| 20260506124727 | 44 | 98 | 8.0 | 11.0 | 0.00 | 0.00 | 0.00 | 79 | 1016.8 |
| 20260506124226 | 44 | 99 | 8.0 | 11.0 | 0.00 | 0.00 | 0.00 | 79 | 1016.9 |
| 20260506123725 | 44 | 88 | 6.0 | 11.0 | 0.00 | 0.00 | 0.00 | 79 | 1016.8 |
| 20260506123224 | 45 | 104 | 4.0 | 8.0 | 0.00 | 0.00 | 0.00 | 79 | 1017.0 |
| 20260506122724 | 44 | 90 | 6.0 | 12.0 | 0.00 | 0.00 | 0.00 | 78 | 1017.1 |
| 20260506122220 | 44 | 87 | 6.0 | 12.0 | 0.00 | 0.00 | 0.00 | 78 | 1016.8 |
| 20260506121721 | 44 | 89 | 5.0 | 11.0 | 0.00 | 0.00 | 0.00 | 78 | 1016.7 |
| 20260506121220 | 44 | 90 | 6.0 | 10.0 | 0.00 | 0.00 | 0.00 | 78 | 1016.5 |
| 20260506120720 | 44 | 90 | 7.0 | 11.0 | 0.00 | 0.00 | 0.00 | 78 | 1016.4 |
| 20260506120219 | 44 | 94 | 7.0 | 11.0 | 0.00 | 0.00 | 0.00 | 78 | 1016.5 |
| 20260506115949 | 44 | 98 | 7.0 | 12.0 | 0.00 | 0.00 | 0.00 | 78 | 1016.3 |
| 20260506115439 | 44 | 122 | 7.0 | 11.0 | 0.00 | 0.00 | 0.00 | 78 | 1016.1 |
| 20260506115313 | 44 | 88 | 7.0 | 12.0 | 0.00 | 0.00 | 0.00 | 78 | 1016.0 |
| 20260506114812 | 44 | 109 | 6.0 | 12.0 | 0.00 | 0.00 | 0.00 | 78 | 1015.9 |
| 20260506113704 | 45 | 98 | 6.0 | 12.0 | 0.00 | 0.00 | 0.00 | 77 | 1015.8 |
| 20260506113205 | 44 | 144 | 6.0 | 11.0 | 0.00 | 0.00 | 0.00 | 78 | 1015.7 |
| 20260506112704 | 44 | 115 | 6.0 | 11.0 | 0.00 | 0.00 | 0.00 | 78 | 1015.7 |
| 20260506112204 | 44 | 122 | 6.0 | 11.0 | 0.00 | 0.00 | 0.00 | 77 | 1015.7 |
| 20260506111702 | 44 | 104 | 6.0 | 11.0 | 0.00 | 0.00 | 0.00 | 77 | 1015.7 |
| 20260506111202 | 44 | 94 | 6.0 | 11.0 | 0.00 | 0.00 | 0.00 | 78 | 1015.7 |
| 20260506110702 | 44 | 91 | 6.0 | 11.0 | 0.00 | 0.00 | 0.00 | 77 | 1015.6 |
| 20260506110203 | 44 | 114 | 5.0 | 10.0 | 0.00 | 0.00 | 0.00 | 77 | 1015.6 |
| 20260506105702 | 44 | 105 | 5.0 | 11.0 | 0.00 | 0.00 | 0.00 | 78 | 1015.4 |
| 20260506105200 | 44 | 75 | 5.0 | 11.0 | 0.00 | 0.00 | 0.00 | 78 | 1015.5 |
| 20260506104658 | 44 | 68 | 5.0 | 9.0 | 0.00 | 0.00 | 0.00 | 78 | 1015.5 |
| 20260506104158 | 44 | 53 | 4.0 | 7.0 | 0.00 | 0.00 | 0.00 | 78 | 1015.5 |
| 20260506103658 | 44 | 46 | 4.0 | 7.0 | 0.00 | 0.00 | 0.00 | 78 | 1015.6 |
| 20260506103200 | 44 | 58 | 4.0 | 7.0 | 0.00 | 0.00 | 0.00 | 78 | 1015.5 |
| 20260506102656 | 44 | 38 | 4.0 | 8.0 | 0.00 | 0.00 | 0.00 | 79 | 1015.5 |
| 20260506102154 | 43 | 46 | 4.0 | 8.0 | 0.00 | 0.00 | 0.00 | 79 | 1015.4 |
| 20260506101925 | 43 | 65 | 5.0 | 16.0 | 0.00 | 0.00 | 0.00 | 79 | 1015.4 |
| 20260506101154 | 43 | 56 | 5.0 | 16.0 | 0.00 | 0.00 | 0.00 | 79 | 1015.3 |
| 20260506100654 | 43 | 30 | 6.0 | 10.0 | 0.00 | 0.00 | 0.00 | 79 | 1015.1 |
| 20260506100155 | 43 | 56 | 6.0 | 9.0 | 0.00 | 0.00 | 0.00 | 79 | 1014.9 |
| 20260506095655 | 43 | 58 | 6.0 | 10.0 | 0.00 | 0.00 | 0.00 | 79 | 1014.9 |
| 20260506095154 | 43 | 50 | 6.0 | 10.0 | 0.00 | 0.00 | 0.00 | 79 | 1014.9 |
| 20260506094654 | 43 | 45 | 5.0 | 9.0 | 0.00 | 0.00 | 0.00 | 79 | 1014.8 |
| 20260506094154 | 43 | 56 | 5.0 | 9.0 | 0.00 | 0.00 | 0.00 | 79 | 1014.7 |
| 20260506093653 | 43 | 42 | 5.0 | 11.0 | 0.00 | 0.00 | 0.00 | 79 | 1014.7 |
| 20260506093152 | 43 | 103 | 7.0 | 12.0 | 0.00 | 0.00 | 0.00 | 79 | 1014.3 |
| 20260506092650 | 42 | 105 | 6.0 | 12.0 | 0.00 | 0.00 | 0.00 | 79 | 1014.3 |
| 20260506092151 | 42 | 98 | 5.0 | 10.0 | 0.00 | 0.00 | 0.00 | 79 | 1014.4 |
| 20260506091646 | 42 | 43 | 5.0 | 10.0 | 0.00 | 0.00 | 0.00 | 80 | 1014.3 |
| 20260506091146 | 42 | 47 | 6.0 | 12.0 | 0.00 | 0.00 | 0.00 | 80 | 1014.2 |
| 20260506090646 | 42 | 56 | 6.0 | 12.0 | 0.00 | 0.00 | 0.00 | 80 | 1014.1 |
| 20260506090148 | 42 | 40 | 6.0 | 12.0 | 0.00 | 0.00 | 0.00 | 79 | 1013.8 |
| 20260506085917 | 42 | 50 | 7.0 | 12.0 | 0.00 | 0.00 | 0.00 | 79 | 1013.8 |
| 20260506085143 | 42 | 40 | 6.0 | 12.0 | 0.00 | 0.00 | 0.00 | 79 | 1013.8 |
| 20260506084644 | 42 | 52 | 6.0 | 12.0 | 0.00 | 0.00 | 0.00 | 79 | 1013.8 |
| 20260506084143 | 42 | 37 | 7.0 | 13.0 | 0.00 | 0.00 | 0.00 | 79 | 1013.9 |
| 20260506083644 | 42 | 60 | 8.0 | 15.0 | 0.00 | 0.00 | 0.00 | 79 | 1013.9 |
| 20260506083144 | 42 | 51 | 8.0 | 15.0 | 0.00 | 0.00 | 0.00 | 79 | 1013.8 |
| 20260506082643 | 42 | 56 | 6.0 | 12.0 | 0.00 | 0.00 | 0.00 | 78 | 1013.8 |
| 20260506082140 | 42 | 56 | 5.0 | 12.0 | 0.00 | 0.00 | 0.00 | 78 | 1013.8 |
| 20260506081641 | 42 | 54 | 5.0 | 10.0 | 0.00 | 0.00 | 0.00 | 78 | 1013.6 |
| 20260506081138 | 42 | 53 | 4.0 | 9.0 | 0.00 | 0.00 | 0.00 | 77 | 1013.4 |
| 20260506080639 | 42 | 54 | 3.0 | 7.0 | 0.00 | 0.00 | 0.00 | 77 | 1013.3 |
| 20260506080407 | 43 | 42 | 4.0 | 11.0 | 0.00 | 0.00 | 0.00 | 77 | 1013.2 |
| 20260506073133 | 44 | 65 | 9.0 | 14.0 | 0.00 | 0.00 | 0.00 | 75 | 1012.3 |
| 20260506072632 | 44 | 60 | 9.0 | 14.0 | 0.00 | 0.00 | 0.00 | 75 | 1012.3 |
| 20260506072132 | 44 | 41 | 8.0 | 14.0 | 0.00 | 0.00 | 0.00 | 74 | 1012.5 |
| 20260506071631 | 44 | 69 | 8.0 | 14.0 | 0.00 | 0.00 | 0.00 | 74 | 1012.6 |
| 20260506071130 | 44 | 55 | 8.0 | 14.0 | 0.00 | 0.00 | 0.00 | 74 | 1012.5 |
| 20260506070630 | 44 | 64 | 7.0 | 12.0 | 0.00 | 0.00 | 0.00 | 73 | 1012.5 |
| 20260506070132 | 44 | 35 | 7.0 | 12.0 | 0.00 | 0.00 | 0.00 | 73 | 1012.7 |
| 20260506062113 | 47 | 34 | 7.0 | 11.0 | 0.00 | 0.00 | 0.00 | 67 | 1012.7 |
| 20260506061614 | 47 | 23 | 6.0 | 11.0 | 0.00 | 0.00 | 0.00 | 65 | 1012.5 |
| 20260506061112 | 48 | 32 | 7.0 | 11.0 | 0.00 | 0.00 | 0.00 | 66 | 1012.1 |
| 20260506060604 | 48 | 17 | 6.0 | 11.0 | 0.00 | 0.00 | 0.00 | 65 | 1012.0 |
| 20260506051058 | 50 | 84 | 10.0 | 16.0 | 0.00 | 0.00 | 0.00 | 61 | 1010.4 |
| 20260506050558 | 51 | 120 | 11.0 | 16.0 | 0.00 | 0.00 | 0.00 | 61 | 1010.3 |
| 20260506044558 | 51 | 103 | 10.0 | 16.0 | 0.00 | 0.00 | 0.00 | 59 | 1010.3 |
| 20260506044056 | 51 | 113 | 9.0 | 14.0 | 0.00 | 0.00 | 0.00 | 59 | 1010.3 |
| 20260506043552 | 51 | 108 | 10.0 | 15.0 | 0.00 | 0.00 | 0.00 | 58 | 1010.3 |
| 20260506043050 | 51 | 80 | 10.0 | 17.0 | 0.00 | 0.00 | 0.00 | 58 | 1010.3 |
| 20260506042550 | 51 | 114 | 10.0 | 17.0 | 0.00 | 0.00 | 0.00 | 58 | 1010.1 |
| 20260506042322 | 51 | 78 | 10.0 | 16.0 | 0.00 | 0.00 | 0.00 | 58 | 1010.1 |
| 20260506041549 | 51 | 89 | 11.0 | 16.0 | 0.00 | 0.00 | 0.00 | 58 | 1010.0 |
| 20260506041048 | 51 | 96 | 10.0 | 15.0 | 0.00 | 0.00 | 0.00 | 58 | 1009.9 |
| 20260506040548 | 52 | 124 | 10.0 | 17.0 | 0.00 | 0.00 | 0.00 | 57 | 1009.8 |
| 20260506040045 | 52 | 101 | 10.0 | 17.0 | 0.00 | 0.00 | 0.00 | 57 | 1009.8 |
| 20260506035547 | 52 | 98 | 10.0 | 15.0 | 0.00 | 0.00 | 0.00 | 57 | 1009.8 |
| 20260506035046 | 52 | 100 | 10.0 | 18.0 | 0.00 | 0.00 | 0.00 | 57 | 1009.9 |
| 20260506034546 | 52 | 94 | 10.0 | 18.0 | 0.00 | 0.00 | 0.00 | 57 | 1009.8 |
| 20260506034044 | 52 | 97 | 10.0 | 16.0 | 0.00 | 0.00 | 0.00 | 57 | 1009.8 |
| 20260506033544 | 53 | 95 | 10.0 | 16.0 | 0.00 | 0.00 | 0.00 | 57 | 1009.7 |
| 20260506033043 | 53 | 99 | 9.0 | 14.0 | 0.00 | 0.00 | 0.00 | 57 | 1009.6 |
| 20260506032545 | 53 | 82 | 8.0 | 12.0 | 0.00 | 0.00 | 0.00 | 57 | 1009.7 |
| 20260506032044 | 53 | 43 | 8.0 | 13.0 | 0.00 | 0.00 | 0.00 | 57 | 1009.6 |
| 20260506031543 | 53 | 148 | 8.0 | 15.0 | 0.00 | 0.00 | 0.00 | 57 | 1009.6 |
| 20260506031044 | 53 | 97 | 7.0 | 15.0 | 0.00 | 0.00 | 0.00 | 58 | 1009.6 |
| 20260506030544 | 54 | 98 | 7.0 | 13.0 | 0.00 | 0.00 | 0.00 | 58 | 1009.5 |
| 20260506030041 | 54 | 53 | 7.0 | 13.0 | 0.00 | 0.00 | 0.00 | 56 | 1009.3 |
| 20260506025811 | 54 | 58 | 6.0 | 11.0 | 0.00 | 0.00 | 0.00 | 56 | 1009.3 |
| 20260506025308 | 55 | 49 | 6.0 | 11.0 | 0.00 | 0.00 | 0.00 | 55 | 1009.3 |
| 20260506024807 | 55 | 53 | 6.0 | 13.0 | 0.00 | 0.00 | 0.00 | 55 | 1009.1 |
| 20260506024036 | 55 | 40 | 7.0 | 13.0 | 0.00 | 0.00 | 0.00 | 54 | 1009.0 |
| 20260506023534 | 55 | 52 | 8.0 | 13.0 | 0.00 | 0.00 | 0.00 | 54 | 1009.0 |
| 20260506023038 | 56 | 44 | 9.0 | 17.0 | 0.00 | 0.00 | 0.00 | 54 | 1008.9 |
| 20260506023034 | 55 | 37 | 9.0 | 13.0 | 0.00 | 0.00 | 0.00 | 54 | 1008.9 |
| 20260506022032 | 56 | 38 | 9.0 | 17.0 | 0.00 | 0.00 | 0.00 | 54 | 1008.5 |
| 20260506021532 | 56 | 49 | 9.0 | 16.0 | 0.00 | 0.00 | 0.00 | 56 | 1008.4 |
| 20260506021031 | 55 | 52 | 8.0 | 16.0 | 0.00 | 0.00 | 0.00 | 57 | 1008.4 |
| 20260506020532 | 55 | 69 | 6.0 | 11.0 | 0.00 | 0.00 | 0.00 | 60 | 1008.8 |
| 20260506020033 | 55 | 34 | 6.0 | 11.0 | 0.00 | 0.00 | 0.00 | 62 | 1008.9 |
| 20260506015517 | 55 | 23 | 8.0 | 12.0 | 0.00 | 0.00 | 0.00 | 62 | 1008.8 |
| 20260506015016 | 55 | 29 | 9.0 | 14.0 | 0.00 | 0.00 | 0.00 | 61 | 1008.5 |
| 20260506014515 | 56 | 8 | 10.0 | 14.0 | 0.00 | 0.00 | 0.00 | 60 | 1008.3 |
| 20260506014011 | 56 | 11 | 11.0 | 17.0 | 0.00 | 0.00 | 0.00 | 60 | 1008.1 |
| 20260506013512 | 56 | 18 | 13.0 | 19.0 | 0.00 | 0.00 | 0.00 | 58 | 1007.8 |
| 20260506013010 | 57 | 16 | 14.0 | 23.0 | 0.00 | 0.00 | 0.00 | 55 | 1007.8 |
| 20260506012515 | 60 | 26 | 16.0 | 23.0 | 0.00 | 0.00 | 0.00 | 45 | 1007.6 |
| 20260506012510 | 58 | 27 | 16.0 | 23.0 | 0.00 | 0.00 | 0.00 | 50 | 1007.8 |
| 20260506011507 | 60 | 21 | 15.0 | 21.0 | 0.00 | 0.00 | 0.00 | 44 | 1007.5 |
| 20260506011008 | 60 | 23 | 14.0 | 21.0 | 0.00 | 0.00 | 0.00 | 43 | 1007.2 |
| 20260506010508 | 61 | 32 | 13.0 | 23.0 | 0.00 | 0.00 | 0.00 | 42 | 1006.9 |
| 20260506010005 | 62 | 41 | 12.0 | 23.0 | 0.00 | 0.00 | 0.00 | 41 | 1006.4 |
| 20260506005504 | 63 | 14 | 12.0 | 19.0 | 0.00 | 0.00 | 0.00 | 40 | 1006.1 |